�N����,����,�~����,�C��,���x,�C��,����,���ϕ���,�ő�u�ԕ���,�ő厞����,���˗�,�I�_���x,�n�����x,�ő啗���N��,DTYPE
"20/05/25","00:10",0.0,20.9,83.5,1006.4,331.6,1.2,1.8,333.1,0.00,18.0,21.5,"00:02:24",1
"20/05/25","00:20",0.0,20.8,83.9,1006.2,326.6,1.0,1.3,321.2,0.00,18.0,21.5,"00:18:40",1
"20/05/25","00:30",0.0,20.7,84.2,1006.2,331.1,1.1,1.3,319.4,0.00,18.0,21.2,"00:21:52",1
"20/05/25","00:40",0.0,20.7,84.5,1006.4,329.3,1.1,1.3,329.1,0.00,18.0,21.2,"00:34:00",1
"20/05/25","00:50",0.0,20.7,84.7,1006.0,329.3,1.1,1.4,333.3,0.00,18.1,21.2,"00:47:20",1
"20/05/25","01:00",0.0,20.7,84.9,1006.0,329.5,1.0,1.6,331.1,0.00,18.1,21.3,"00:53:52",1
"20/05/25","01:10",0.0,20.6,85.0,1006.0,326.5,1.0,1.2,331.6,0.00,18.0,21.4,"01:05:52",1
"20/05/25","01:20",0.0,20.5,85.1,1006.0,322.2,1.1,1.3,333.3,0.00,18.0,21.3,"01:12:00",1
"20/05/25","01:30",0.0,20.4,85.2,1006.2,331.7,0.8,1.1,347.7,0.00,17.9,21.2,"01:24:40",1
"20/05/25","01:40",0.0,20.1,85.3,1005.7,312.2,0.6,1.0,357.4,0.00,17.6,21.1,"01:30:24",1
"20/05/25","01:50",0.0,19.8,85.6,1005.7,322.5,0.8,1.1,321.6,0.00,17.4,21.2,"01:48:56",1
"20/05/25","02:00",0.0,19.8,86.1,1006.0,333.2,1.1,1.3,334.0,0.00,17.4,20.9,"01:50:32",1
"20/05/25","02:10",0.0,19.7,86.4,1006.0,332.5,0.7,1.1,313.1,0.00,17.4,21.1,"02:00:24",1
"20/05/25","02:20",0.0,19.6,86.9,1006.0,305.8,0.8,1.6,320.8,0.00,17.4,21.0,"02:10:02",1
"20/05/25","02:30",0.0,19.5,87.1,1006.0,310.8,0.8,1.4,329.2,0.00,17.3,20.8,"02:20:24",1
"20/05/25","02:40",0.0,19.5,87.4,1006.2,302.7,0.7,1.1,316.5,0.00,17.4,20.7,"02:38:48",1
"20/05/25","02:50",0.0,19.6,87.6,1006.0,314.5,1.0,1.2,308.6,0.00,17.5,20.7,"02:42:24",1
"20/05/25","03:00",0.0,19.6,87.9,1006.2,320.3,1.1,1.2,317.6,0.00,17.6,20.7,"02:51:28",1
"20/05/25","03:10",0.0,19.5,88.0,1006.0,311.4,0.7,1.2,330.1,0.00,17.5,20.7,"03:01:04",1
"20/05/25","03:20",0.0,19.3,88.2,1006.2,301.5,0.7,1.0,317.1,0.00,17.3,20.5,"03:18:16",1
"20/05/25","03:30",0.0,19.4,88.5,1006.2,307.2,1.0,1.3,322.2,0.00,17.5,20.7,"03:23:52",1
"20/05/25","03:40",0.0,19.5,88.7,1006.2,303.2,1.0,1.4,318.1,0.00,17.6,20.8,"03:36:56",1
"20/05/25","03:50",0.0,19.7,88.9,1006.4,326.6,1.0,1.7,320.7,0.00,17.9,20.7,"03:49:20",1
"20/05/25","04:00",0.0,19.6,89.0,1006.2,336.3,1.0,1.4,326.7,0.00,17.8,20.6,"03:50:08",1
"20/05/25","04:10",0.0,19.5,89.1,1006.2,309.2,1.0,1.2,303.7,0.00,17.7,20.8,"04:04:48",1
"20/05/25","04:20",0.0,19.5,89.3,1006.2,315.7,1.0,1.3,322.2,0.00,17.7,20.5,"04:13:36",1
"20/05/25","04:30",0.0,19.5,89.4,1006.2,322.7,1.0,1.4,313.4,0.00,17.8,20.3,"04:24:08",1
"20/05/25","04:40",0.0,19.5,89.6,1006.7,311.8,1.0,1.3,324.6,0.00,17.8,20.6,"04:37:44",1
"20/05/25","04:50",0.0,19.6,89.7,1006.4,305.7,1.0,1.2,319.5,0.00,17.9,20.6,"04:40:24",1
"20/05/25","05:00",0.0,19.6,89.8,1005.7,315.5,0.7,1.4,312.2,0.00,17.9,20.6,"04:52:40",1
"20/05/25","05:10",0.0,19.7,89.9,1005.7,342.6,0.5,1.3,335.4,0.00,18.0,20.6,"05:08:40",1
"20/05/25","05:20",0.0,19.7,90.0,1006.0,317.5,1.2,1.7,332.1,0.00,18.1,20.5,"05:12:16",1
"20/05/25","05:30",0.0,19.8,90.1,1006.2,300.1,1.0,1.3,319.4,0.00,18.2,20.6,"05:22:56",1
"20/05/25","05:40",0.0,19.8,90.2,1006.4,290.2,0.8,1.1,301.2,0.00,18.2,20.6,"05:36:00",1
"20/05/25","05:50",0.0,20.0,90.2,1006.7,303.5,0.8,1.4,326.4,0.00,18.4,20.5,"05:42:56",1
"20/05/25","06:00",0.0,20.1,90.3,1006.4,308.7,1.0,1.2,319.4,0.01,18.5,20.5,"05:58:48",1
"20/05/25","06:10",0.0,20.4,90.2,1006.2,292.3,0.7,1.3,317.8,0.02,18.8,20.4,"06:09:20",1
"20/05/25","06:20",0.0,20.6,90.2,1006.2,303.3,0.8,1.2,317.2,0.03,19.0,20.4,"06:10:56",1
"20/05/25","06:30",0.0,20.8,90.2,1006.7,314.1,0.8,1.2,324.5,0.04,19.2,20.8,"06:22:00",1
"20/05/25","06:40",0.0,21.0,90.0,1006.4,309.8,0.7,1.1,303.9,0.04,19.3,20.8,"06:30:32",1
"20/05/25","06:50",0.0,21.1,89.8,1006.4,308.5,0.2,0.6,301.0,0.04,19.4,20.7,"06:40:02",1
"20/05/25","07:00",0.0,21.1,89.7,1006.7,318.1,1.0,1.7,325.0,0.07,19.4,20.7,"06:56:56",1
"20/05/25","07:10",0.0,21.5,89.3,1006.7,311.0,0.3,1.6,324.2,0.08,19.7,20.8,"07:00:40",1
"20/05/25","07:20",0.0,21.4,88.5,1006.4,342.5,0.7,1.6,331.4,0.07,19.5,20.7,"07:16:32",1
"20/05/25","07:30",0.0,21.6,87.6,1006.4,0.8,0.6,1.1,338.1,0.09,19.5,20.8,"07:22:24",1
"20/05/25","07:40",0.0,22.0,86.4,1006.4,0.1,0.6,1.7,355.4,0.11,19.7,21.0,"07:36:48",1
"20/05/25","07:50",0.0,22.0,85.0,1006.2,67.7,0.7,1.7,118.2,0.07,19.4,21.0,"07:42:48",1
"20/05/25","08:00",0.0,22.2,83.5,1006.2,84.4,0.6,1.3,323.5,0.07,19.3,21.0,"07:51:52",1
"20/05/25","08:10",0.0,22.1,82.5,1006.4,223.5,0.7,1.2,150.3,0.06,19.0,21.1,"08:02:08",1
"20/05/25","08:20",0.0,22.4,81.6,1006.4,212.3,0.6,1.3,141.9,0.10,19.1,21.2,"08:14:40",1
"20/05/25","08:30",0.0,22.6,79.9,1006.2,212.7,1.0,2.1,235.3,0.15,19.0,21.1,"08:23:52",1
"20/05/25","08:40",0.0,23.3,78.6,1006.2,202.8,1.5,2.8,203.0,0.25,19.4,21.5,"08:36:24",1
"20/05/25","08:50",0.0,23.7,76.8,1005.7,279.4,0.8,1.9,237.5,0.24,19.4,21.6,"08:40:48",1
"20/05/25","09:00",0.0,24.1,74.7,1006.0,220.0,0.8,2.0,187.5,0.27,19.4,21.7,"08:50:32",1
"20/05/25","09:10",0.0,24.7,73.8,1005.2,157.0,1.2,2.6,189.4,0.34,19.8,22.1,"09:04:40",1
"20/05/25","09:20",0.0,25.0,71.4,1005.2,147.5,2.0,4.5,138.7,0.42,19.5,22.0,"09:15:20",1
"20/05/25","09:30",0.0,25.3,70.7,1005.2,154.5,2.0,4.7,126.1,0.44,19.6,22.4,"09:23:12",1
"20/05/25","09:40",0.0,25.4,67.7,1005.0,148.7,1.2,3.4,185.8,0.30,19.0,22.4,"09:30:32",1
"20/05/25","09:50",0.0,24.9,67.9,1005.0,168.5,1.1,2.2,162.7,0.12,18.6,22.8,"09:47:36",1
"20/05/25","10:00",0.0,24.8,69.0,1004.5,168.8,1.1,3.3,127.7,0.17,18.8,22.8,"09:50:08",1
"20/05/25","10:10",0.0,25.5,68.9,1004.5,126.3,1.7,4.2,131.3,0.44,19.4,22.9,"10:05:52",1
"20/05/25","10:20",0.0,25.9,67.7,1003.6,152.0,1.6,3.6,123.2,0.42,19.5,23.0,"10:11:28",1
"20/05/25","10:30",0.0,26.6,63.9,1004.1,173.7,2.2,4.1,123.3,0.58,19.2,23.4,"10:22:40",1
"20/05/25","10:40",0.0,26.3,61.6,1003.8,203.4,2.7,6.0,208.5,0.48,18.4,23.5,"10:39:36",1
"20/05/25","10:50",0.0,26.5,62.2,1003.8,207.0,1.8,4.7,209.7,0.43,18.7,23.9,"10:40:24",1
"20/05/25","11:00",0.0,26.2,61.6,1003.8,193.2,1.7,3.5,211.8,0.29,18.3,23.9,"10:51:20",1
"20/05/25","11:10",0.0,26.7,60.3,1003.6,294.4,0.8,3.1,222.2,0.38,18.4,24.0,"11:02:16",1
"20/05/25","11:20",0.0,27.0,58.6,1003.6,321.4,1.2,3.3,341.5,0.35,18.2,24.2,"11:12:16",1
"20/05/25","11:30",0.0,26.5,57.8,1003.4,247.4,1.5,3.6,258.1,0.25,17.6,24.2,"11:24:00",1
"20/05/25","11:40",0.0,26.9,58.5,1003.8,223.3,1.5,3.6,228.8,0.34,18.1,24.5,"11:39:36",1
"20/05/25","11:50",0.0,26.8,59.3,1003.8,244.5,2.1,4.7,230.7,0.38,18.2,24.6,"11:43:52",1
"20/05/25","12:00",0.0,27.1,57.7,1003.1,266.8,1.1,2.9,253.5,0.37,18.1,24.6,"11:51:52",1
"20/05/25","12:10",0.0,26.4,59.1,1002.9,230.9,2.2,4.8,207.2,0.21,17.8,24.7,"12:06:00",1
"20/05/25","12:20",0.0,26.9,58.5,1002.9,248.2,1.3,3.2,218.3,0.37,18.1,24.7,"12:11:12",1
"20/05/25","12:30",0.0,27.0,56.7,1002.9,234.5,1.8,4.0,211.7,0.34,17.7,24.7,"12:24:48",1
"20/05/25","12:40",0.0,27.0,56.6,1002.9,289.6,1.0,2.9,231.3,0.25,17.7,24.9,"12:30:40",1
"20/05/25","12:50",0.0,27.3,57.6,1002.9,314.1,1.5,3.4,336.6,0.40,18.2,25.0,"12:46:48",1
"20/05/25","13:00",0.0,27.3,55.4,1002.9,235.9,1.8,4.5,208.2,0.38,17.6,24.9,"12:59:04",1
"20/05/25","13:10",0.0,27.3,55.8,1002.9,223.0,2.2,6.2,223.5,0.35,17.7,25.0,"13:00:32",1
"20/05/25","13:20",0.0,27.2,56.6,1002.9,221.3,2.8,5.8,220.5,0.36,17.9,25.1,"13:15:52",1
"20/05/25","13:30",0.0,27.0,57.1,1002.4,222.7,2.6,5.2,225.2,0.28,17.8,25.2,"13:22:00",1
"20/05/25","13:40",0.0,27.6,57.1,1002.2,263.2,1.5,4.3,229.1,0.45,18.4,25.2,"13:32:00",1
"20/05/25","13:50",0.0,28.3,54.5,1002.6,307.9,1.5,2.9,338.8,0.47,18.3,25.1,"13:41:20",1
"20/05/25","14:00",0.0,27.9,54.3,1002.4,253.4,1.6,4.8,346.6,0.32,17.9,25.0,"13:53:28",1
"20/05/25","14:10",0.0,27.9,55.0,1002.9,243.3,1.3,3.2,234.4,0.28,18.1,25.3,"14:03:44",1
"20/05/25","14:20",0.0,27.5,56.6,1002.6,201.5,2.1,4.2,224.5,0.26,18.2,25.0,"14:12:08",1
"20/05/25","14:30",0.0,28.4,53.5,1002.9,242.7,1.5,4.4,229.8,0.41,18.1,25.2,"14:24:40",1
"20/05/25","14:40",0.0,28.1,54.9,1002.4,209.5,1.3,3.2,281.1,0.25,18.2,25.3,"14:32:16",1
"20/05/25","14:50",0.0,28.1,55.7,1002.2,218.2,0.6,1.7,310.3,0.23,18.5,25.4,"14:40:40",1
"20/05/25","15:00",0.0,28.2,53.4,1002.6,261.9,1.2,2.8,223.5,0.25,17.9,25.2,"14:51:52",1
"20/05/25","15:10",0.0,28.1,53.6,1002.4,244.4,1.3,3.4,230.9,0.21,17.8,25.4,"15:03:52",1
"20/05/25","15:20",0.0,27.9,54.3,1002.4,276.8,1.0,2.0,359.4,0.18,17.9,25.3,"15:14:56",1
"20/05/25","15:30",0.0,27.6,53.9,1002.4,254.9,1.3,4.1,213.8,0.14,17.5,25.3,"15:23:36",1
"20/05/25","15:40",0.0,27.4,54.9,1001.9,243.5,1.6,3.2,230.7,0.13,17.6,25.2,"15:30:16",1
"20/05/25","15:50",0.0,27.4,55.9,1001.9,272.4,1.2,3.7,233.4,0.16,17.9,25.3,"15:42:16",1
"20/05/25","16:00",0.0,27.6,55.9,1001.5,219.7,2.1,4.2,222.5,0.23,18.0,25.2,"15:58:00",1
"20/05/25","16:10",0.0,27.5,55.9,1001.5,237.4,1.7,3.4,235.7,0.18,18.0,25.3,"16:04:40",1
"20/05/25","16:20",0.0,27.6,56.8,1001.5,216.8,2.1,3.9,208.1,0.22,18.3,25.2,"16:11:52",1
"20/05/25","16:30",0.0,27.7,56.0,1001.5,219.7,1.3,3.2,181.1,0.17,18.2,25.1,"16:21:04",1
"20/05/25","16:40",0.0,28.0,54.6,1001.7,267.2,1.2,2.4,309.4,0.21,18.0,25.2,"16:39:36",1
"20/05/25","16:50",0.0,27.6,55.0,1001.2,301.6,1.3,2.9,330.1,0.14,17.8,25.1,"16:45:44",1
"20/05/25","17:00",0.0,27.2,56.4,1001.0,261.3,1.5,2.6,227.7,0.11,17.8,25.2,"16:50:32",1
"20/05/25","17:10",0.0,27.2,55.8,1000.8,272.9,1.2,2.8,247.9,0.09,17.6,25.2,"17:06:40",1
"20/05/25","17:20",0.0,27.0,56.0,1000.8,263.3,1.5,2.8,252.7,0.07,17.5,25.1,"17:15:28",1
"20/05/25","17:30",0.0,26.7,56.9,1000.8,252.8,1.3,2.7,226.2,0.05,17.5,24.9,"17:26:00",1
"20/05/25","17:40",0.0,26.6,57.7,1000.8,275.3,1.2,2.7,267.9,0.06,17.6,25.0,"17:38:40",1
"20/05/25","17:50",0.0,26.2,58.5,1001.5,267.7,1.3,3.1,247.2,0.04,17.5,24.9,"17:41:20",1
"20/05/25","18:00",0.0,25.9,59.6,1001.9,266.4,1.5,2.7,218.6,0.03,17.5,24.8,"17:51:12",1
"20/05/25","18:10",0.0,25.8,59.8,1001.9,266.3,1.3,2.5,234.7,0.02,17.4,24.6,"18:08:08",1
"20/05/25","18:20",0.0,25.6,59.4,1001.7,267.0,1.5,3.1,231.6,0.01,17.1,24.6,"18:16:56",1
"20/05/25","18:30",0.0,25.2,59.0,1001.9,275.2,1.6,3.1,249.7,0.00,16.7,24.4,"18:21:12",1
"20/05/25","18:40",0.0,24.9,59.6,1002.4,282.6,1.2,2.8,279.9,0.00,16.5,24.2,"18:37:52",1
"20/05/25","18:50",0.0,24.6,60.7,1002.4,300.6,1.0,2.4,355.6,0.00,16.5,24.1,"18:45:28",1
"20/05/25","19:00",0.0,24.5,61.3,1002.4,280.2,1.1,2.1,327.3,0.00,16.6,24.1,"18:53:44",1
"20/05/25","19:10",0.0,24.3,61.7,1002.6,284.9,1.2,2.2,292.5,0.00,16.5,24.0,"19:00:24",1
"20/05/25","19:20",0.0,24.1,63.2,1002.9,318.0,0.8,2.4,328.0,0.00,16.7,23.8,"19:13:20",1
"20/05/25","19:30",0.0,23.9,65.3,1002.6,340.2,0.8,1.9,326.9,0.00,17.0,23.7,"19:26:56",1
"20/05/25","19:40",0.0,23.5,66.4,1003.1,340.7,1.1,1.9,344.4,0.00,16.9,23.5,"19:36:32",1
"20/05/25","19:50",0.0,23.3,66.7,1003.4,292.1,0.7,1.1,301.2,0.00,16.8,23.5,"19:45:04",1
"20/05/25","20:00",0.0,23.1,67.5,1003.4,321.8,1.0,1.4,320.0,0.00,16.8,23.3,"19:52:16",1
"20/05/25","20:10",0.0,22.9,68.4,1003.6,309.6,0.8,1.3,313.2,0.00,16.8,23.3,"20:07:52",1
"20/05/25","20:20",0.0,22.6,69.3,1003.8,306.7,1.0,1.3,329.1,0.00,16.7,23.2,"20:16:16",1
"20/05/25","20:30",0.0,22.4,70.3,1004.1,305.2,0.8,2.2,314.6,0.00,16.8,22.9,"20:20:02",1
"20/05/25","20:40",0.0,22.2,71.5,1003.8,289.1,1.0,1.7,319.6,0.00,16.8,23.1,"20:30:40",1
"20/05/25","20:50",0.0,22.1,72.7,1004.1,261.6,0.8,1.6,272.9,0.00,17.0,23.0,"20:44:32",1
"20/05/25","21:00",0.0,22.1,73.4,1004.3,275.9,0.8,1.4,240.1,0.00,17.2,22.9,"20:50:16",1
"20/05/25","21:10",0.0,22.3,74.1,1004.3,333.0,1.1,1.6,316.3,0.00,17.5,22.7,"21:05:04",1
"20/05/25","21:20",0.0,22.1,75.6,1004.1,329.9,1.3,2.2,327.8,0.00,17.6,22.7,"21:16:24",1
"20/05/25","21:30",0.0,21.8,76.7,1004.1,336.1,1.1,1.7,334.9,0.00,17.6,22.7,"21:24:56",1
"20/05/25","21:40",0.0,21.7,76.9,1004.5,324.9,1.5,2.2,328.6,0.00,17.5,22.7,"21:36:48",1
"20/05/25","21:50",0.0,21.8,76.4,1004.3,300.2,1.1,1.9,261.3,0.00,17.5,22.5,"21:43:36",1
"20/05/25","22:00",0.0,21.9,75.9,1004.3,288.1,0.8,1.1,311.2,0.00,17.5,22.5,"21:58:40",1
"20/05/25","22:10",0.0,21.9,75.2,1004.1,325.8,1.3,2.1,324.0,0.00,17.4,22.4,"22:08:32",1
"20/05/25","22:20",0.0,21.8,75.1,1004.3,296.8,1.1,2.0,339.6,0.00,17.2,22.4,"22:10:40",1
"20/05/25","22:30",0.0,21.7,75.1,1004.3,333.7,1.0,1.7,332.7,0.00,17.1,22.5,"22:22:08",1
"20/05/25","22:40",0.0,21.8,75.4,1004.3,329.8,1.0,1.4,333.6,0.00,17.3,22.2,"22:34:32",1
"20/05/25","22:50",0.0,21.6,75.8,1004.3,298.4,1.1,1.6,313.6,0.00,17.2,22.2,"22:44:32",1
"20/05/25","23:00",0.0,21.5,76.5,1004.3,328.0,0.8,1.6,334.3,0.00,17.2,22.1,"22:52:08",1
"20/05/25","23:10",0.0,21.5,77.2,1004.5,328.8,1.5,2.6,332.0,0.00,17.4,22.0,"23:01:52",1
"20/05/25","23:20",0.0,21.6,77.5,1004.3,326.7,1.8,2.6,335.7,0.00,17.5,22.1,"23:15:36",1
"20/05/25","23:30",0.0,21.6,77.6,1004.3,328.3,1.6,2.7,325.0,0.00,17.6,22.0,"23:26:24",1
"20/05/25","23:40",0.0,21.5,77.7,1004.3,314.5,1.6,2.7,338.4,0.00,17.5,22.1,"23:35:36",1
"20/05/25","23:50",0.0,21.5,77.7,1004.8,317.4,1.8,3.6,345.3,0.00,17.5,21.8,"23:49:28",1
"20/05/25","24:00",0.0,21.4,77.9,1003.8,317.3,1.5,2.6,333.5,0.00,17.4,21.9,"23:51:44",1
